Puyallup, WA
on Saturday, November 10, 2012

Saturday
Previous Day Next Day
Daily Summary
 ActualAverage (KSEA)Record (KSEA)
Temperature
Mean Temperature °F 47°F  
Max Temperature 44°F 52°F 63°F (1997)
Min Temperature 23°F 41°F 30°F (1948)
Degree Days
Heating Degree Days 32 18  
Month to date heating degree days 173  
Since 1 July heating degree days 770  
Cooling Degree Days 0 0  
Month to date cooling degree days 0  
Year to date cooling degree days 189  
Moisture
Dew Point 28°F   
Average Humidity 87    
Maximum Humidity 100    
Minimum Humidity 49    
Precipitation
Precipitation 0.00 in 0.22 in 1.08 in (1962)
Month to date precipitation 2.04  
Year to date precipitation 27.61  
Snow
Snow 0.00 in in T in (1986)
Month to date snowfall  
Since 1 July snowfall  
Snow Depth in   
Wind
Wind Speed 0 mph   
Max Wind Speed 0 mph   
Max Gust Speed mph   
Visibility 10 miles   
Events Rain   

Key: T is trace of precipitation, MM is missing value
Source: NWS Daily Summary
Time(PST)TemperatureDew PointHumidity Pressure Visibility Wind DirectionWind SpeedGust SpeedPrecipitationEvents Conditions
12:15 AM 26.6°F 26.6°F 100% 29.95 in 10.0 miles Calm Calm - N/A   Clear
12:35 AM 26.6°F 26.6°F 100% 29.95 in 10.0 miles Calm Calm - N/A   Clear
12:55 AM 26.6°F 26.6°F 100% 29.96 in 10.0 miles Calm Calm - N/A   Clear
1:15 AM 26.6°F 26.6°F 100% 29.96 in 10.0 miles Calm Calm - N/A   Clear
1:35 AM 24.8°F 24.8°F 100% 29.97 in 10.0 miles Calm Calm - N/A   Clear
1:55 AM 24.8°F 24.8°F 100% 29.97 in 9.0 miles Calm Calm - N/A   Clear
2:15 AM 26.6°F 26.6°F 100% 29.97 in 10.0 miles Calm Calm - N/A   Clear
2:35 AM 26.6°F 26.6°F 100% 29.98 in 10.0 miles Calm Calm - N/A   Clear
2:55 AM 24.8°F 24.8°F 100% 29.98 in 10.0 miles Calm Calm - N/A   Clear
3:15 AM 24.8°F 24.8°F 100% 29.98 in 10.0 miles Calm Calm - N/A   Clear
3:35 AM 24.8°F 24.8°F 100% 29.99 in 10.0 miles Calm Calm - N/A   Clear
4:15 AM 24.8°F 24.8°F 100% 29.99 in 10.0 miles Calm Calm - N/A   Clear
4:35 AM 24.8°F 24.8°F 100% 30.00 in 10.0 miles Calm Calm - N/A   Clear
4:55 AM 24.8°F 24.8°F 100% 30.00 in 10.0 miles Calm Calm - N/A   Clear
5:15 AM 23.0°F 23.0°F 100% 30.01 in 10.0 miles Calm Calm - N/A   Clear
5:35 AM 24.8°F 24.8°F 100% 30.02 in 10.0 miles Calm Calm - N/A   Scattered Clouds
5:55 AM 24.8°F 24.8°F 100% 30.03 in 10.0 miles Calm Calm - N/A   Mostly Cloudy
6:15 AM 26.6°F 26.6°F 100% 30.03 in 10.0 miles Calm Calm - N/A   Mostly Cloudy
6:35 AM 26.6°F 26.6°F 100% 30.03 in 10.0 miles Calm Calm - N/A   Scattered Clouds
6:55 AM 26.6°F 26.6°F 100% 30.03 in 10.0 miles Calm Calm - N/A   Partly Cloudy
7:15 AM 26.6°F 26.6°F 100% 30.04 in 10.0 miles Calm Calm - N/A   Clear
7:35 AM 24.8°F 24.8°F 100% 30.05 in 9.0 miles Calm Calm - N/A   Clear
7:55 AM 26.6°F 26.6°F 100% 30.06 in 10.0 miles Calm Calm - N/A   Mostly Cloudy
8:15 AM 28.4°F 28.4°F 100% 30.06 in 10.0 miles Calm Calm - N/A   Mostly Cloudy
8:35 AM 30.2°F 30.2°F 100% 30.07 in 10.0 miles Calm Calm - N/A   Scattered Clouds
8:55 AM 32.0°F 32.0°F 100% 30.08 in 10.0 miles Calm Calm - N/A   Overcast
9:15 AM 32.0°F 32.0°F 100% 30.07 in 10.0 miles Calm Calm - N/A   Scattered Clouds
9:35 AM 32.0°F 32.0°F 100% 30.08 in 10.0 miles Calm Calm - N/A   Scattered Clouds
9:55 AM 33.8°F 32.0°F 93% 30.08 in 10.0 miles Calm Calm - N/A   Mostly Cloudy
10:15 AM 37.4°F 33.8°F 87% 30.09 in 10.0 miles Calm Calm - N/A Rain Light Rain
10:35 AM 37.4°F 33.8°F 87% 30.10 in 10.0 miles Calm Calm - N/A   Partly Cloudy
10:55 AM 41.0°F 32.0°F 70% 30.10 in 10.0 miles Calm Calm - N/A   Clear
11:15 AM 41.0°F 30.2°F 65% 30.11 in 10.0 miles Calm Calm - N/A   Clear
11:35 AM 41.0°F 30.2°F 65% 30.11 in 10.0 miles Calm Calm - N/A   Clear
11:55 AM 42.8°F 28.4°F 57% 30.11 in 10.0 miles Calm Calm - N/A   Clear
12:15 PM 42.8°F 28.4°F 57% 30.11 in 10.0 miles Calm Calm - N/A   Scattered Clouds
12:35 PM 42.8°F 28.4°F 57% 30.12 in 10.0 miles Calm Calm - N/A   Partly Cloudy
12:55 PM 42.8°F 28.4°F 57% 30.13 in 10.0 miles Calm Calm - N/A   Clear
1:15 PM 42.8°F 28.4°F 57% 30.13 in 10.0 miles Calm Calm - N/A   Clear
1:35 PM 44.6°F 26.6°F 49% 30.13 in 10.0 miles Calm Calm - N/A   Clear
1:55 PM 44.6°F 26.6°F 49% 30.14 in 10.0 miles Calm Calm - N/A   Clear
2:15 PM 42.8°F 24.8°F 49% 30.14 in 10.0 miles Calm Calm - N/A   Clear
2:35 PM 44.6°F 26.6°F 49% 30.13 in 10.0 miles Calm Calm - N/A   Clear
2:55 PM 42.8°F 28.4°F 57% 30.13 in 10.0 miles Calm Calm - N/A   Clear
3:15 PM 42.8°F 28.4°F 57% 30.13 in 10.0 miles Calm Calm - N/A   Clear
3:35 PM 42.8°F 26.6°F 53% 30.14 in 10.0 miles Calm Calm - N/A   Clear
3:55 PM 42.8°F 26.6°F 53% 30.15 in 10.0 miles Calm Calm - N/A   Clear
4:15 PM 41.0°F 28.4°F 61% 30.15 in 10.0 miles Calm Calm - N/A   Clear
4:35 PM 35.6°F 30.2°F 81% 30.15 in 10.0 miles Calm Calm - N/A   Clear
4:55 PM 33.8°F 30.2°F 87% 30.16 in 10.0 miles Calm Calm - N/A   Clear
5:15 PM 32.0°F 28.4°F 87% 30.16 in 10.0 miles Calm Calm - N/A   Clear
5:35 PM 32.0°F 28.4°F 87% 30.17 in 10.0 miles Calm Calm - N/A   Clear
5:55 PM 32.0°F 28.4°F 87% 30.17 in 10.0 miles Calm Calm - N/A   Clear
6:15 PM 32.0°F 28.4°F 87% 30.18 in 10.0 miles Calm Calm - N/A   Clear
6:35 PM 30.2°F 28.4°F 93% 30.18 in 10.0 miles Calm Calm - N/A   Clear
6:55 PM 28.4°F 28.4°F 100% 30.19 in 10.0 miles Calm Calm - N/A   Clear
7:15 PM 30.2°F 28.4°F 93% 30.18 in 10.0 miles Calm Calm - N/A   Clear
7:35 PM 28.4°F 26.6°F 93% 30.19 in 10.0 miles Calm Calm - N/A   Clear
7:55 PM 30.2°F 28.4°F 93% 30.19 in 10.0 miles Calm Calm - N/A   Clear
8:15 PM 28.4°F 26.6°F 93% 30.19 in 10.0 miles Calm Calm - N/A   Clear
8:35 PM 28.4°F 26.6°F 93% 30.19 in 10.0 miles Calm Calm - N/A   Clear
8:55 PM 28.4°F 28.4°F 100% 30.19 in 10.0 miles Calm Calm - N/A   Clear
9:15 PM 26.6°F 26.6°F 100% 30.19 in 10.0 miles Calm Calm - N/A   Clear
9:35 PM 26.6°F 26.6°F 100% 30.20 in 10.0 miles Calm Calm - N/A   Clear
9:55 PM 26.6°F 26.6°F 100% 30.20 in 10.0 miles Calm Calm - N/A   Clear
10:35 PM 26.6°F 26.6°F 100% 30.21 in 10.0 miles Calm Calm - N/A   Clear
10:55 PM 26.6°F 26.6°F 100% 30.21 in 10.0 miles Calm Calm - N/A   Clear
11:15 PM 26.6°F 26.6°F 100% 30.21 in 10.0 miles Calm Calm - N/A   Clear
11:35 PM 28.4°F 28.4°F 100% 30.21 in 9.0 miles Calm Calm - N/A   Clear
11:55 PM 28.4°F 28.4°F 100% 30.21 in 10.0 miles Calm Calm - N/A   Clear
Moon Phase
Nov. 10 Nov. 13 Nov. 20 Nov. 28 Dec. 06
Sunrise:07:06 AM (PST) Moon Rise:03:04 AM (PST)11/10
Sunset:04:39 PM (PST) Moon Set:02:40 PM (PST)11/10

Copyright © 2014 The Weather Underground, Inc.